Weather History for KDYR - March, 2012

Change the Weather History Date:

Tuesday, March 20, 2012

  Actual Average Record
Temperature  
Mean Temperature 72 °F -  
Max Temperature 82 °F 57 °F 82 °F (2012)
Min Temperature 62 °F 40 °F 32 °F (2008)
Cooling Degree Days 7    
Growing Degree Days 22 (Base 50)    
Moisture  
Dew Point 52 °F    
Average Humidity 51    
Maximum Humidity 68    
Minimum Humidity 35    
Precipitation  
Precipitation 0.00 in - - ()
Sea Level Pressure  
Sea Level Pressure 29.97 in    
Wind  
Wind Speed 7 mph (SE)    
Max Wind Speed 18 mph    
Max Gust Speed 31 mph    
Visibility 10 miles    
Events      
Averages and records for this station are not official NWS values.
T = Trace of Precipitation, MM = Missing Value Source: NWS Daily Summary

Daily Weather History Graph

Daily Weather History Graph

Search for Another Location

Airport or City:

Trip Planner

Search our weather history database for the weather conditions in past years. The results will help you decide how hot, cold, wet, or windy it might be!

Date:

Astronomy

Mar. 20, 2012 Rise Set
Actual Time 7:00 AM CDT 7:09 PM CDT
Civil Twilight 6:34 AM CDT 7:35 PM CDT
Nautical Twilight 6:05 AM CDT 8:05 PM CDT
Astronomical Twilight 5:34 AM CDT 8:35 PM CDT
Moon 5:40 AM CDT (3/20) 5:39 PM CDT (3/20)
Length of Visible Light 13h 00m
Length of Day
12h 09m
Waning Crescent, 4% of the Moon is Illuminated
Mar 20
Waning Crescent
Mar 22
New
Mar 30
First Quarter
Apr 6
Full
Apr 13
Last Quarter

Hourly Weather History & Observations

Time (CDT) Temp. Heat Index Dew Point Humidity Pressure Visibility Wind Dir Wind Speed Gust Speed Precip Events Conditions
12:15 AM 69.8 °F - 51.8 °F 53% 29.98 in 10.0 mi SE 4.6 mph - N/A   Clear
12:35 AM 68.0 °F - 51.8 °F 56% 29.98 in 10.0 mi SE 4.6 mph - N/A   Clear
12:55 AM 69.8 °F - 51.8 °F 53% 29.99 in 10.0 mi SE 4.6 mph - N/A   Clear
1:15 AM 68.0 °F - 51.8 °F 56% 29.99 in 10.0 mi SE 3.5 mph - N/A   Clear
1:35 AM 66.2 °F - 51.8 °F 60% 29.99 in 10.0 mi SE 3.5 mph - N/A   Clear
1:55 AM 66.2 °F - 51.8 °F 60% 29.99 in 10.0 mi SE 3.5 mph - N/A   Clear
2:15 AM 66.2 °F - 51.8 °F 60% 29.99 in 10.0 mi SE 3.5 mph - N/A   Clear
2:35 AM 66.2 °F - 51.8 °F 60% 29.98 in 10.0 mi ESE 4.6 mph - N/A   Clear
2:55 AM 64.4 °F - 51.8 °F 64% 29.98 in 10.0 mi ESE 4.6 mph - N/A   Clear
3:15 AM 64.4 °F - 51.8 °F 64% 29.98 in 10.0 mi SE 4.6 mph - N/A   Clear
3:35 AM 64.4 °F - 51.8 °F 64% 29.97 in 10.0 mi ESE 4.6 mph - N/A   Clear
3:55 AM 64.4 °F - 51.8 °F 64% 29.97 in 10.0 mi ESE 4.6 mph - N/A   Clear
4:15 AM 64.4 °F - 51.8 °F 64% 29.96 in 10.0 mi ESE 5.8 mph - N/A   Clear
4:35 AM 64.4 °F - 51.8 °F 64% 29.96 in 10.0 mi SE 6.9 mph - N/A   Clear
4:55 AM 64.4 °F - 51.8 °F 64% 29.96 in 10.0 mi ESE 5.8 mph - N/A   Clear
5:15 AM 64.4 °F - 51.8 °F 64% 29.96 in 10.0 mi ESE 4.6 mph - N/A   Clear
5:35 AM 62.6 °F - 51.8 °F 68% 29.97 in 10.0 mi ESE 4.6 mph - N/A   Clear
5:55 AM 62.6 °F - 51.8 °F 68% 29.97 in 10.0 mi East 4.6 mph - N/A   Clear
6:15 AM 62.6 °F - 50.0 °F 63% 29.97 in 10.0 mi East 4.6 mph - N/A   Clear
6:35 AM 62.6 °F - 50.0 °F 63% 29.97 in 10.0 mi ESE 4.6 mph - N/A   Clear
6:55 AM 62.6 °F - 50.0 °F 63% 29.97 in 10.0 mi ESE 5.8 mph - N/A   Clear
7:15 AM 62.6 °F - 51.8 °F 68% 29.97 in 10.0 mi ESE 6.9 mph - N/A   Clear
7:35 AM 62.6 °F - 51.8 °F 68% 29.97 in 10.0 mi SE 6.9 mph - N/A   Clear
7:55 AM 64.4 °F - 51.8 °F 64% 29.98 in 10.0 mi SE 6.9 mph - N/A   Clear
8:15 AM 64.4 °F - 51.8 °F 64% 29.99 in 10.0 mi SE 8.1 mph - N/A   Clear
8:35 AM 66.2 °F - 51.8 °F 60% 30.00 in 10.0 mi SE 9.2 mph - N/A   Clear
8:55 AM 66.2 °F - 51.8 °F 60% 30.00 in 10.0 mi SE 9.2 mph - N/A   Clear
9:15 AM 68.0 °F - 51.8 °F 56% 30.00 in 10.0 mi SE 11.5 mph - N/A   Clear
9:35 AM 69.8 °F - 51.8 °F 53% 30.01 in 10.0 mi SE 8.1 mph - N/A   Clear
9:55 AM 71.6 °F - 51.8 °F 50% 30.01 in 10.0 mi SE 9.2 mph - N/A   Clear
10:15 AM 73.4 °F - 50.0 °F 44% 30.02 in 10.0 mi SSE 12.7 mph 17.3 mph N/A   Clear
10:35 AM 75.2 °F - 51.8 °F 44% 30.02 in 10.0 mi South 12.7 mph 21.9 mph N/A   Clear
10:55 AM 75.2 °F - 50.0 °F 41% 30.03 in 10.0 mi South 15.0 mph 23.0 mph N/A   Clear
11:15 AM 77.0 °F - 51.8 °F 41% 30.03 in 10.0 mi South 12.7 mph 19.6 mph N/A   Clear
11:35 AM 77.0 °F - 51.8 °F 41% 30.02 in 10.0 mi SSE 12.7 mph 26.5 mph N/A   Clear
11:55 AM 78.8 °F - 53.6 °F 42% 30.01 in 10.0 mi SSE 13.8 mph 18.4 mph N/A   Clear
12:15 PM 78.8 °F - 53.6 °F 42% 30.01 in 10.0 mi South 12.7 mph 20.7 mph N/A   Clear
12:35 PM 80.6 °F 80.5 °F 55.4 °F 42% 30.00 in 10.0 mi SSE 16.1 mph 27.6 mph N/A   Partly Cloudy
12:55 PM 80.6 °F 80.3 °F 53.6 °F 39% 29.99 in 10.0 mi South 15.0 mph 24.2 mph N/A   Scattered Clouds
1:15 PM 82.4 °F 81.7 °F 55.4 °F 39% 29.98 in 10.0 mi South 15.0 mph 23.0 mph N/A   Partly Cloudy
1:35 PM 82.4 °F 81.7 °F 55.4 °F 39% 29.97 in 10.0 mi South 15.0 mph 25.3 mph N/A   Partly Cloudy
1:55 PM 80.6 °F 80.5 °F 55.4 °F 42% 29.96 in 10.0 mi SSE 13.8 mph 26.5 mph N/A   Scattered Clouds
2:15 PM 82.4 °F 81.7 °F 55.4 °F 39% 29.95 in 10.0 mi SSE 11.5 mph 25.3 mph N/A   Scattered Clouds
2:55 PM 82.4 °F 81.4 °F 53.6 °F 37% 29.93 in 10.0 mi SSE 16.1 mph 24.2 mph N/A   Partly Cloudy
3:15 PM 82.4 °F - 51.8 °F 35% 29.92 in 10.0 mi SSE 18.4 mph 31.1 mph N/A   Partly Cloudy
3:35 PM 82.4 °F - 51.8 °F 35% 29.92 in 10.0 mi SSE 16.1 mph 27.6 mph N/A   Partly Cloudy
3:55 PM 82.4 °F - 51.8 °F 35% 29.91 in 10.0 mi SSE 13.8 mph 19.6 mph N/A   Scattered Clouds
4:15 PM 82.4 °F 81.4 °F 53.6 °F 37% 29.91 in 10.0 mi SSE 9.2 mph 19.6 mph N/A   Scattered Clouds
4:35 PM 82.4 °F 81.4 °F 53.6 °F 37% 29.90 in 9.0 mi SSE 13.8 mph 21.9 mph N/A   Mostly Cloudy
4:55 PM 80.6 °F - 51.8 °F 37% 29.90 in 10.0 mi SSE 10.4 mph 18.4 mph N/A   Mostly Cloudy
5:15 PM 80.6 °F - 51.8 °F 37% 29.90 in 10.0 mi South 10.4 mph 16.1 mph N/A   Scattered Clouds
5:35 PM 80.6 °F - 51.8 °F 37% 29.90 in 10.0 mi SSE 9.2 mph - N/A   Partly Cloudy
5:55 PM 80.6 °F - 51.8 °F 37% 29.90 in 10.0 mi South 9.2 mph 17.3 mph N/A   Partly Cloudy
6:35 PM 78.8 °F - 51.8 °F 39% 29.90 in 10.0 mi SSE 5.8 mph - N/A   Clear
6:55 PM 75.2 °F - 51.8 °F 44% 29.90 in 10.0 mi SE 5.8 mph - N/A   Clear
7:15 PM 75.2 °F - 51.8 °F 44% 29.90 in 10.0 mi SE 8.1 mph - N/A   Clear
7:35 PM 75.2 °F - 51.8 °F 44% 29.91 in 10.0 mi SE 10.4 mph - N/A   Clear
7:55 PM 75.2 °F - 50.0 °F 41% 29.92 in 10.0 mi SE 8.1 mph - N/A   Clear
8:15 PM 75.2 °F - 50.0 °F 41% 29.92 in 10.0 mi SE 9.2 mph - N/A   Clear
8:35 PM 75.2 °F - 50.0 °F 41% 29.93 in 10.0 mi SE 8.1 mph - N/A   Clear
8:55 PM 75.2 °F - 50.0 °F 41% 29.94 in 10.0 mi SSE 6.9 mph - N/A   Clear
9:15 PM 73.4 °F - 50.0 °F 44% 29.95 in 10.0 mi SE 5.8 mph - N/A   Clear
9:35 PM 71.6 °F - 50.0 °F 46% 29.95 in 10.0 mi SE 6.9 mph - N/A   Clear
9:55 PM 71.6 °F - 51.8 °F 50% 29.95 in 10.0 mi ESE 5.8 mph - N/A   Clear
10:15 PM 71.6 °F - 50.0 °F 46% 29.95 in 10.0 mi SE 5.8 mph - N/A   Clear
10:35 PM 73.4 °F - 50.0 °F 44% 29.96 in 10.0 mi SE 8.1 mph - N/A   Clear
10:55 PM 71.6 °F - 51.8 °F 50% 29.96 in 10.0 mi SE 9.2 mph - N/A   Clear
11:15 PM 73.4 °F - 50.0 °F 44% 29.96 in 10.0 mi SE 9.2 mph - N/A   Clear
11:35 PM 73.4 °F - 51.8 °F 47% 29.97 in 10.0 mi SE 8.1 mph - N/A   Clear
11:55 PM 71.6 °F - 51.8 °F 50% 29.98 in 10.0 mi SE 6.9 mph - N/A   Clear